This is the latest recevied weather packets stored in our database for station/object KC1BRV. If no packets are shown the sender has not sent any weather packets the latest 1 day(s).
| Time | Temp. | Humidity | Pressure | Rain* | Wind** | Luminosity | Snow |
|---|---|---|---|---|---|---|---|
| 1778002607 | 23.89° C | 47% | 1011 hPa | 0 mm | 0.45 m/s, 87° | 726 W/m² | - |
| 1778002304 | 23.33° C | 48% | 1011.2 hPa | 0 mm | 1.34 m/s, 98° | 728 W/m² | - |
| 1778002001 | 23.33° C | 50% | 1011.3 hPa | 0 mm | 1.79 m/s, 119° | 731 W/m² | - |
| 1778001698 | 23.89° C | 47% | 1011.5 hPa | 0 mm | 2.68 m/s, 172° | 731 W/m² | - |
| 1778001397 | 23.33° C | 49% | 1011.6 hPa | 0 mm | 0 m/s | 734 W/m² | - |
| 1778001095 | 23.89° C | 47% | 1011.4 hPa | 0 mm | 1.79 m/s, 132° | 740 W/m² | - |
| 1778000792 | 23.33° C | 48% | 1011.4 hPa | 0 mm | 0 m/s | 742 W/m² | - |
| 1778000488 | 23.33° C | 49% | 1011.6 hPa | 0 mm | 1.34 m/s, 156° | 747 W/m² | - |
| 1778000183 | 23.33° C | 50% | 1011.5 hPa | 0 mm | 0 m/s | 746 W/m² | - |
| 1777999880 | 22.78° C | 50% | 1011.5 hPa | 0 mm | 0.89 m/s, 99° | 749 W/m² | - |
| 1777999575 | 23.33° C | 51% | 1011.6 hPa | 0 mm | 0.89 m/s, 32° | 750 W/m² | - |
| 1777999273 | 23.33° C | 51% | 1011.7 hPa | 0 mm | 0.45 m/s, 106° | 749 W/m² | - |
| 1777998971 | 23.33° C | 51% | 1011.7 hPa | 0 mm | 0 m/s | 747 W/m² | - |
| 1777998669 | 22.78° C | 52% | 1011.7 hPa | 0 mm | 0.45 m/s, 102° | 745 W/m² | - |
| 1777998366 | 22.78° C | 51% | 1011.9 hPa | 0 mm | 1.79 m/s, 105° | 745 W/m² | - |
| 1777998064 | 22.22° C | 52% | 1011.8 hPa | 0 mm | 0.45 m/s, 129° | 741 W/m² | - |
| 1777997760 | 22.22° C | 53% | 1012.1 hPa | 0 mm | 0.45 m/s, 125° | 739 W/m² | - |
| 1777997458 | 22.78° C | 52% | 1012.2 hPa | 0 mm | 0.45 m/s, 96° | 738 W/m² | - |
| 1777997155 | 22.78° C | 52% | 1012.3 hPa | 0 mm | 0.45 m/s, 71° | 734 W/m² | - |
| 1777996853 | 23.33° C | 50% | 1012.3 hPa | 0 mm | 0 m/s | 732 W/m² | - |
| 1777996548 | 22.78° C | 50% | 1012.1 hPa | 0 mm | 0 m/s | 728 W/m² | - |
| 1777996245 | 23.33° C | 51% | 1012 hPa | 0 mm | 0.45 m/s, 112° | 723 W/m² | - |
| 1777995941 | 23.33° C | 50% | 1012.1 hPa | 0 mm | 0.45 m/s, 88° | 716 W/m² | - |
| 1777995637 | 23.33° C | 53% | 1012 hPa | 0 mm | 0.45 m/s, 327° | 715 W/m² | - |
| 1777995335 | 23.89° C | 51% | 1011.9 hPa | 0 mm | 1.34 m/s, 98° | 720 W/m² | - |
* Rain latest hour (hover to see other rain measurements)
** Current wind speed in m/s (hover to see current wind gust speed)